Simultaneous Nadir Overpasses (SNOs) Predictions

Prediction of SNOs between GOES-16 and NOAA-20 Satellite Orbit:

Table of predicted SNOs for the next 14.0 days since TLE Epoch: 7/2/2022
Index Date Time (GOES-16) GOES-16 Lat,Lon NOAA-20 Lat,Lon Distance(km) Time Diff (sec)
1 07/02/2022 06:32:39 0.01, -75.20 0.30, -76.48 145.55 80
2 07/03/2022 06:11:14 0.02, -75.21 -0.70, -71.94 371.67 80
3 07/04/2022 18:35:49 -0.02, -75.22 -0.50, -77.24 230.56 80
4 07/05/2022 18:14:25 -0.02, -75.23 0.56, -72.72 287.10 80
5 07/07/2022 06:38:51 0.02, -75.25 0.64, -77.98 312.02 80
6 07/08/2022 06:17:26 0.02, -75.26 -0.36, -73.45 205.62 80
7 07/09/2022 18:42:02 -0.01, -75.28 -0.77, -78.76 396.59 80
8 07/10/2022 18:23:16 0.01, -75.29 0.23, -74.23 120.94 80
9 07/12/2022 06:45:04 -0.01, -75.30 0.92, -79.50 478.04 80
10 07/13/2022 06:23:38 -0.01, -75.31 -0.09, -74.96 39.81 80
11 07/15/2022 18:26:48 0.01, -75.36 -0.09, -75.73 43.24 80
